Simultaneous Nadir Overpasses (SNOs) Predictions

Prediction of SNOs between GOES-17 and METOP-B Satellite Orbit:

Table of predicted SNOs for the next 14.0 days since TLE Epoch: 3/27/2021
Index Date Time (GOES-17) GOES-17 Lat,Lon METOP-B Lat,Lon Distance(km) Time Diff (sec)
1 03/28/2021 06:47:27 -0.04,-137.21 -0.41,-138.92 194.63 80
2 03/29/2021 06:24:07 -0.04,-137.21 0.67,-133.92 374.55 80
3 03/30/2021 18:42:58 0.04,-137.22 0.35,-138.48 144.76 80
4 03/31/2021 18:22:18 0.04,-137.21 -0.79,-133.49 423.98 80
5 04/02/2021 06:43:58 -0.04,-137.19 -0.22,-138.09 101.49 80
6 04/03/2021 06:20:37 -0.04,-137.18 0.86,-133.08 466.59 80
7 04/04/2021 18:39:28 0.03,-137.17 0.16,-137.64 54.32 80
8 04/07/2021 06:40:27 -0.03,-137.13 -0.08,-137.24 13.08 80
9 04/09/2021 18:38:39 0.03,-137.11 -0.05,-136.81 33.83 80
